{"data":{"norad_id":60089,"epoch":"2026-09-22T23:28:11.451648Z","epoch_age_seconds":64404,"freshness":"FRESH","line1":"1 60089U 24116B   26265.97791032  .00000984  00000+0  10132-3 0  9996","line2":"2 60089  28.9951 219.3659 0004931 315.2774  44.7422 14.83715002122133","mean_motion":14.83715002,"eccentricity":0.0004931,"inclination_deg":28.9951,"raan_deg":219.3659,"arg_perigee_deg":315.2774,"mean_anomaly_deg":44.7422,"bstar":0.00010132,"rev_number":12213,"period_min":97.053679315699,"perigee_km":614.17254456951,"apogee_km":621.0717622466,"semimajor_km":6995.7591534081,"source":"CELESTRAK","updated_at":"2026-09-23T09:00:20.408464Z"}}